Lexington Weather

Lexington, Massachusetts, USA

43°F
9/19/2020 7:41am 
  • Lexington Conditions: Clear
  • Temperature: 43.2°F / 6.2°C 
  • Dew Point: 35.4°F 
  • Relative Humidity: 74
  • Wind: Wind from NNE NNE Calm, 10-min avg: 1 mph, gust: 2 mph
  • Barometer: 30.23 inRising 0.03  inHg/hr Rising Slowly
  • Visibility: 10 miles
  • Rain Today: 0.00 in
  •   
Southeast Middlesex County - Special Weather Statement
 - SEE ALL NEARBY ALERTS -

Regional Weather Roundup
for Boston / Norton, MA

        
000
ASUS41 KBOX 170005
RWRBOX

REGIONAL WEATHER ROUNDUP
NATIONAL WEATHER SERVICE BOSTON/NORTON MA
800 PM EDT WED SEP 16 2020

NOTE:  "FAIR" INDICATES FEW OR NO CLOUDS BELOW 12,000 FEET WITH NO 
SIGNIFICANT WEATHER AND/OR OBSTRUCTIONS TO VISIBILITY.

MAZALL-170100-
EASTERN MASSACHUSETTS
  
CITY           SKY/WX    TMP DP  RH WIND       PRES   REMARKS
BOSTON         PTCLDY    64  53  67 S14       30.09S                  
6HR MIN TEMP:  64; 6HR MAX TEMP:  73;                                

BEVERLY        CLEAR     67  52  58 SW14G24   30.07F                  
LAWRENCE       CLEAR     66  53  63 SW9       30.09R                  
BEDFORD        CLEAR     64  53  67 S9        30.08S                  
BLUE HILL        N/A     61  53  75 S16G23    30.10S                  
NORWOOD        CLEAR     65  53  65 S7        30.11R                  
MARSHFIELD     MOCLDY    66  57  72 SW10G18   30.11F                  
PLYMOUTH       CLEAR     63  56  78 SW8       30.13S                  
TAUNTON        CLEAR     65  55  70 S3        30.13S                  
NEW BEDFORD    CLEAR     62  57  83 S5        30.14S                  
$$

MAZALL-170100-
CAPE COD AND THE ISLANDS
  
CITY           SKY/WX    TMP DP  RH WIND       PRES   REMARKS
FALMOUTH       PTCLDY    64  57  77 SW14      30.15S                  
HYANNIS        PTCLDY    66  61  84 S12       30.14S                  
CHATHAM        CLEAR     65  59  81 S9        30.17S                  
PROVINCETOWN   CLEAR     64  58  80 SW14      30.14S                  
NANTUCKET      PTCLDY    66  60  81 S13       30.17S                  
MARTHAS VNYRD  CLEAR     65  58  78 SW8       30.16S                  
$$
 
MAZALL-170100-
CENTRAL AND WESTERN MASSACHUSETTS
  
CITY           SKY/WX    TMP DP  RH WIND       PRES   REMARKS
WORCESTER      CLEAR     61  52  72 SW12      30.11S                  
6HR MIN TEMP:  61; 6HR MAX TEMP:  70;                                

FITCHBURG      CLEAR     65  52  62 SE5       30.09S                  
ORANGE         CLEAR     64  54  69 S14       30.09R                  
SPRINGFIELD    MOCLDY    64  53  67 S7        30.09R                  
WESTFIELD      CLEAR     63  53  70 S10       30.09S                  
NORTH ADAMS    CLEAR     61  48  62 VRB3      30.07R                  
PITTSFIELD     CLEAR     62  49  62 S8G17     30.08F                  
$$
 
RIZALL-170100-
RHODE ISLAND
  
CITY           SKY/WX    TMP DP  RH WIND       PRES   REMARKS
PROVIDENCE     PTCLDY    63  56  78 S8        30.14S                  
6HR MIN TEMP:  63; 6HR MAX TEMP:  74;                                

NEWPORT        PTCLDY    66  58  75 S7        30.14F                  
BLOCK ISLAND   PTCLDY    65  58  78 SW9       30.16F                  
SMITHFIELD     CLEAR     61  56  83 VRB6      30.13F                  
WESTERLY       CLEAR     66  56  70 SW9       30.15F                  
$$
 
CTZALL-170100-
CONNECTICUT
  
CITY           SKY/WX    TMP DP  RH WIND       PRES   REMARKS
BRADLEY INTL   MOCLDY    64  53  67 S10       30.11R                  
6HR MIN TEMP:  64; 6HR MAX TEMP:  74;                                

HARTFORD       CLEAR     65  54  67 S7        30.11S                  
BRIDGEPORT     CLEAR     69  56  62 S13       30.13S                  
DANBURY        CLEAR     61  54  77 VRB6      30.13S                  
GROTON         CLOUDY    67  57  70 SW15      30.13F                  
NEW HAVEN      CLEAR     69  57  65 S10G17    30.13S                  
CHESTER        FAIR      63  57  82 S7        30.14                   
MERIDEN        CLEAR     63  54  72 S3        30.12S                  
WILLIMANTIC    CLEAR     63  55  75 S7        30.13S                  
OXFORD         CLEAR     59  55  87 S5        30.14S                  
$$

MEZ002-015-021-024-NHZ003-005-008-011-012-014-VTZ005-008-170100-
NORTHERN NEW ENGLAND
  
CITY           SKY/WX    TMP DP  RH WIND       PRES   REMARKS
PORTLAND ME    CLEAR     65  56  72 S9        30.00F                  
6HR MIN TEMP:  65; 6HR MAX TEMP:  73;                                

BANGOR ME      MOCLDY    62  53  72 S9        29.96F                  
CONCORD NH     CLEAR     65  50  58 S9        30.04S                  
MANCHESTER NH  CLEAR     68  52  56 S12       30.04S                  
NASHUA NH      CLEAR     66  55  67 VRB3      30.07S                  
PORTSMOUTH NH  PTCLDY    66  51  57 S12G18    30.03S                  
JAFFREY NH     CLEAR     62  52  69 SW9       30.08S                  
KEENE NH       CLEAR     62  53  72 S6        30.07R                  
BURLINGTON VT  MOCLDY    67  44  43 S18G30    29.93R                  
MT. WASHINGTON CLOUDY    50  14  23 W58G77      N/A                   
$$

NYZ052-076-170100-
EASTERN NEW YORK
  
CITY           SKY/WX    TMP DP  RH WIND       PRES   REMARKS
ALBANY         MOCLDY    62  50  64 S14G24    30.03S                  
6HR MIN TEMP:  61; 6HR MAX TEMP:  68;                                

NEW YORK CITY  MOCLDY    70  55  59 S12       30.12S                  
6HR MIN TEMP:  70; 6HR MAX TEMP:  73;                                

$$
 
ANZALL-170100-
MARINE OBSERVATIONS
  
STATION/POSITION TIME  TEMP    WIND        PRES    VSBY  WAVE
                       AIR SEA DIR/SP/G                  HT/PER
                 (UTC) (F)     (DEG/KT/KT) (MB)    (MI)  (FT/S)
BOSTON BUOY      2350   66 64  190/ 17/ 21 1018.0F         3/11
BUZZARDS BAY     2300          220/ 13/ 14 1022.0F
NANTUCKET SOUND  2350      70  190/ 16/ 17   N/A           2/ 3
MASS BAY-STELLWA 2304   65     220/ 17/ 23 1016.7F  1 7/8  4/ 5
ISLE OF SHOALS   2300   66     190/ 27/ 29 1017.0F
S OF BLOCK IS    2326      70                N/A           4/10
$$

......................KEY.........................
  SKY/WX - SKY CONDITION/PRESENT WEATHER
  TMP    - TEMPERATURE IN FAHRENHEIT
  DWPT   - DEWPOINT IN FAHRENHEIT
  RH     - RELATIVE HUMIDITY IN PERCENT
  WIND   - DIRECTION AND SPEED IN MPH
  PRES   - MEAN SEA LEVEL PRESSURE IN INCHES OF HG
  WCI    - WIND CHILL INDEX
  VSB    - VISIBILITY IN MILES
  HX     - HEAT INDEX
  TC     - TEMPERATURE IN CELSIUS
  VRB    - VARIABLE WIND DIRECTION
  N/A    - NOT AVAILABLE
  
      

Other recent Regional Weather Roundups

Sat Sep 19, 7:04am

Sat Sep 19, 6:04am

Sat Sep 19, 5:04am

Sat Sep 19, 4:04am

Sat Sep 19, 3:04am

Sat Sep 19, 2:04am

Sat Sep 19, 1:04am

Sat Sep 19, 12:04am

Fri Sep 18, 11:05pm

Fri Sep 18, 10:04pm

Fri Sep 18, 9:04pm

Fri Sep 18, 8:04pm

Fri Sep 18, 7:04pm

Fri Sep 18, 6:04pm

Fri Sep 18, 5:05pm

Fri Sep 18, 4:04pm

Fri Sep 18, 3:05pm

Fri Sep 18, 2:04pm

Fri Sep 18, 1:04pm

Fri Sep 18, 12:04pm

Fri Sep 18, 11:05am

Fri Sep 18, 10:05am

Fri Sep 18, 9:04am

Fri Sep 18, 8:04am

Fri Sep 18, 7:04am

Fri Sep 18, 6:04am

Fri Sep 18, 5:04am

Fri Sep 18, 4:04am

Fri Sep 18, 3:04am

Fri Sep 18, 2:04am

Fri Sep 18, 1:04am

Fri Sep 18, 12:04am

Thu Sep 17, 11:05pm

Thu Sep 17, 10:04pm

Thu Sep 17, 9:04pm

Thu Sep 17, 8:05pm

Thu Sep 17, 7:04pm

Thu Sep 17, 6:04pm

Thu Sep 17, 5:04pm

Thu Sep 17, 4:04pm

Thu Sep 17, 3:05pm

Thu Sep 17, 2:04pm

Thu Sep 17, 1:04pm

Thu Sep 17, 12:04pm

Thu Sep 17, 11:04am

Thu Sep 17, 10:04am

Thu Sep 17, 9:04am

Thu Sep 17, 8:04am

Thu Sep 17, 7:04am

Thu Sep 17, 6:04am

Thu Sep 17, 5:04am

Thu Sep 17, 4:04am

Thu Sep 17, 3:04am

Thu Sep 17, 2:05am

Thu Sep 17, 1:05am

Thu Sep 17, 12:04am

Wed Sep 16, 11:04pm

Wed Sep 16, 10:04pm

Wed Sep 16, 9:04pm

Wed Sep 16, 7:04pm

Wed Sep 16, 6:04pm

Wed Sep 16, 5:04pm

Wed Sep 16, 4:04pm

Wed Sep 16, 3:04pm

Wed Sep 16, 2:04pm

Wed Sep 16, 1:04pm

Wed Sep 16, 12:04pm

Wed Sep 16, 11:04am

Wed Sep 16, 10:04am

Wed Sep 16, 9:04am

Wed Sep 16, 8:04am

Wed Sep 16, 7:04am

Wed Sep 16, 6:04am

Wed Sep 16, 5:04am

Wed Sep 16, 4:04am

Wed Sep 16, 3:04am

Wed Sep 16, 2:04am

Wed Sep 16, 1:04am

Wed Sep 16, 12:05am

Tue Sep 15, 11:04pm

Tue Sep 15, 10:04pm

Tue Sep 15, 9:04pm

Tue Sep 15, 8:04pm

Tue Sep 15, 7:04pm

Tue Sep 15, 6:04pm

Tue Sep 15, 5:04pm

Tue Sep 15, 4:05pm

Tue Sep 15, 3:04pm

Tue Sep 15, 2:04pm

Tue Sep 15, 1:04pm

Tue Sep 15, 12:04pm

Tue Sep 15, 11:04am

Tue Sep 15, 10:04am

Tue Sep 15, 9:04am

Tue Sep 15, 8:04am

Tue Sep 15, 7:04am

Tue Sep 15, 6:04am

Tue Sep 15, 5:04am

Tue Sep 15, 4:04am

Tue Sep 15, 3:04am

Tue Sep 15, 2:04am

Tue Sep 15, 1:04am

Tue Sep 15, 12:05am

Mon Sep 14, 11:04pm

Mon Sep 14, 10:04pm

Mon Sep 14, 9:04pm

Mon Sep 14, 8:04pm

Mon Sep 14, 7:04pm

Mon Sep 14, 6:04pm

Mon Sep 14, 5:04pm

Mon Sep 14, 4:05pm

Mon Sep 14, 3:04pm

Mon Sep 14, 2:05pm

Mon Sep 14, 1:04pm

Mon Sep 14, 12:04pm

Mon Sep 14, 11:04am

Mon Sep 14, 10:05am

Mon Sep 14, 9:04am

Mon Sep 14, 8:04am

Mon Sep 14, 7:04am

Mon Sep 14, 6:04am

Mon Sep 14, 5:04am

Mon Sep 14, 4:04am

Mon Sep 14, 3:04am

Mon Sep 14, 2:04am

Mon Sep 14, 1:04am

Mon Sep 14, 12:04am

Sun Sep 13, 11:05pm

Sun Sep 13, 10:04pm

Sun Sep 13, 9:04pm

Sun Sep 13, 8:04pm

Sun Sep 13, 7:05pm

Sun Sep 13, 6:05pm

Sun Sep 13, 5:05pm

Sun Sep 13, 4:04pm

Sun Sep 13, 3:04pm

Sun Sep 13, 2:04pm

Sun Sep 13, 1:04pm

Sun Sep 13, 12:04pm

Sun Sep 13, 11:05am

Sun Sep 13, 10:04am

Sun Sep 13, 9:04am

Sun Sep 13, 8:04am

Sun Sep 13, 7:04am

Sun Sep 13, 6:04am

Sun Sep 13, 5:04am

Sun Sep 13, 4:04am

Sun Sep 13, 3:04am

Sun Sep 13, 2:04am

Sun Sep 13, 1:04am

Sun Sep 13, 12:04am

Sat Sep 12, 11:04pm

Sat Sep 12, 10:04pm

Sat Sep 12, 9:04pm

Sat Sep 12, 8:04pm

Sat Sep 12, 7:05pm

Sat Sep 12, 6:04pm

Sat Sep 12, 5:04pm

Sat Sep 12, 4:05pm

Sat Sep 12, 3:04pm

Sat Sep 12, 2:04pm

Sat Sep 12, 1:05pm

Sat Sep 12, 12:04pm

Sat Sep 12, 11:04am

Sat Sep 12, 10:04am

Sat Sep 12, 9:04am

Sat Sep 12, 8:04am

Meta data:

ID: 0be2c01b-187d-4cad-90e4-f14a59b6908d
Link: https://api.weather.gov/products/0be2c01b-187d-4cad-90e4-f14a59b6908d